| time (UTC) | temp C | wind direction | speed KPH | gust KPH | rain 1hr cm | rain 24hr cm | rain mn cm | humidity % | barometer mb |
| 20260503192646 | 23 | 18 | 6.4 | 16.1 | 0.00 | 0.00 | 0.00 | 33 | 1020.3 |
| 20260503192146 | 23 | 315 | 9.7 | 16.1 | 0.00 | 0.00 | 0.00 | 33 | 1020.7 |
| 20260503191647 | 23 | 18 | 1.6 | 12.9 | 0.00 | 0.00 | 0.00 | 32 | 1020.7 |
| 20260503191146 | 23 | 10 | 9.7 | 16.1 | 0.00 | 0.00 | 0.00 | 33 | 1020.7 |
| 20260503190647 | 23 | 335 | 8.0 | 14.5 | 0.00 | 0.00 | 0.00 | 33 | 1020.7 |
| 20260503190147 | 23 | 32 | 9.7 | 17.7 | 0.00 | 0.00 | 0.00 | 34 | 1020.7 |
| 20260503185647 | 23 | 321 | 12.9 | 14.5 | 0.00 | 0.00 | 0.00 | 34 | 1020.7 |
| 20260503185146 | 23 | 313 | 9.7 | 16.1 | 0.00 | 0.00 | 0.00 | 34 | 1020.7 |
| 20260503184646 | 23 | 1 | 6.4 | 14.5 | 0.00 | 0.00 | 0.00 | 35 | 1021.0 |
| 20260503184147 | 23 | 321 | 8.0 | 19.3 | 0.00 | 0.00 | 0.00 | 36 | 1021.0 |
| 20260503183646 | 23 | 35 | 8.0 | 12.9 | 0.00 | 0.00 | 0.00 | 34 | 1021.0 |
| 20260503183147 | 23 | 15 | 8.0 | 9.7 | 0.00 | 0.00 | 0.00 | 33 | 1021.0 |
| 20260503182646 | 23 | 300 | 12.9 | 14.5 | 0.00 | 0.00 | 0.00 | 32 | 1021.3 |
| 20260503182146 | 23 | 41 | 1.6 | 9.7 | 0.00 | 0.00 | 0.00 | 33 | 1021.0 |
| 20260503181646 | 23 | 337 | 6.4 | 14.5 | 0.00 | 0.00 | 0.00 | 32 | 1021.3 |
| 20260503181148 | 23 | 349 | 8.0 | 12.9 | 0.00 | 0.00 | 0.00 | 32 | 1021.3 |
| 20260503180652 | 23 | 115 | 3.2 | 6.4 | 0.00 | 0.00 | 0.00 | 32 | 1021.3 |
| 20260503180146 | 23 | 59 | 9.7 | 20.9 | 0.00 | 0.00 | 0.00 | 32 | 1021.3 |
| 20260503175646 | 23 | 330 | 4.8 | 9.7 | 0.00 | 0.00 | 0.00 | 31 | 1021.3 |
| 20260503175146 | 23 | 12 | 6.4 | 8.0 | 0.00 | 0.00 | 0.00 | 32 | 1021.3 |
| 20260503174646 | 22 | 356 | 4.8 | 9.7 | 0.00 | 0.00 | 0.00 | 33 | 1021.7 |
| 20260503174147 | 23 | 49 | 11.3 | 22.5 | 0.00 | 0.00 | 0.00 | 32 | 1021.7 |
| 20260503173646 | 22 | 100 | 4.8 | 8.0 | 0.00 | 0.00 | 0.00 | 32 | 1021.7 |
| 20260503173148 | 22 | 66 | 6.4 | 16.1 | 0.00 | 0.00 | 0.00 | 32 | 1021.7 |
| 20260503172647 | 22 | 5 | 6.4 | 17.7 | 0.00 | 0.00 | 0.00 | 31 | 1022.0 |
| 20260503172147 | 22 | 48 | 11.3 | 20.9 | 0.00 | 0.00 | 0.00 | 32 | 1022.0 |
| 20260503171647 | 22 | 67 | 4.8 | 11.3 | 0.00 | 0.00 | 0.00 | 32 | 1022.4 |
| 20260503171146 | 22 | 67 | 9.7 | 17.7 | 0.00 | 0.00 | 0.00 | 31 | 1022.7 |
| 20260503170646 | 22 | 52 | 6.4 | 19.3 | 0.00 | 0.00 | 0.00 | 32 | 1022.4 |
| 20260503170146 | 22 | 354 | 8.0 | 9.7 | 0.00 | 0.00 | 0.00 | 30 | 1022.4 |
| 20260503150647 | 22 | 44 | 9.7 | 20.9 | 0.00 | 0.00 | 0.00 | 33 | 1022.4 |
| 20260503150146 | 22 | 57 | 3.2 | 12.9 | 0.00 | 0.00 | 0.00 | 34 | 1022.4 |
| 20260503140147 | 21 | 64 | 6.4 | 12.9 | 0.00 | 0.00 | 0.00 | 47 | 1021.7 |
| 20260503131146 | 20 | 15 | 3.2 | 6.4 | 0.00 | 0.00 | 0.00 | 60 | 1021.3 |
| 20260503130647 | 19 | 38 | 0.0 | 4.8 | 0.00 | 0.00 | 0.00 | 61 | 1021.3 |
| 20260503130148 | 18 | 34 | 4.8 | 4.8 | 0.00 | 0.00 | 0.00 | 64 | 1021.3 |
| 20260503120147 | 13 | 15 | 0.0 | 1.6 | 0.00 | 0.00 | 0.00 | 77 | 1020.7 |
| 20260503110646 | 13 | 44 | 0.0 | 0.0 | 0.00 | 0.00 | 0.00 | 77 | 1020.3 |
| 20260503110146 | 13 | 44 | 0.0 | 0.0 | 0.00 | 0.00 | 0.00 | 77 | 1020.3 |
| 20260503100147 | 13 | 315 | 0.0 | 0.0 | 0.00 | 0.00 | 0.00 | 73 | 1020.3 |
| 20260503090153 | 18 | 13 | 8.0 | 9.7 | 0.00 | 0.00 | 0.00 | 51 | 1020.0 |
| 20260503081147 | 18 | 13 | 8.0 | 9.7 | 0.00 | 0.00 | 0.00 | 51 | 1019.6 |
| 20260503080646 | 18 | 13 | 8.0 | 9.7 | 0.00 | 0.00 | 0.00 | 51 | 1019.6 |
| 20260503080146 | 18 | 13 | 8.0 | 9.7 | 0.00 | 0.00 | 0.00 | 51 | 1019.6 |
| 20260503072646 | 18 | 13 | 8.0 | 9.7 | 0.00 | 0.00 | 0.00 | 51 | 1019.3 |
| 20260503072146 | 18 | 13 | 8.0 | 9.7 | 0.00 | 0.00 | 0.00 | 51 | 1019.3 |
| 20260503071648 | 18 | 9 | 6.4 | 8.0 | 0.00 | 0.00 | 0.00 | 49 | 1019.3 |
| 20260503071146 | 18 | 9 | 6.4 | 8.0 | 0.00 | 0.00 | 0.00 | 49 | 1019.0 |
| 20260503070646 | 18 | 9 | 6.4 | 8.0 | 0.00 | 0.00 | 0.00 | 49 | 1019.3 |
| 20260503070146 | 18 | 9 | 6.4 | 8.0 | 0.00 | 0.00 | 0.00 | 49 | 1019.3 |
| 20260503060146 | 19 | 353 | 8.0 | 14.5 | 0.00 | 0.00 | 0.00 | 47 | 1019.0 |
| 20260503054648 | 19 | 10 | 16.1 | 17.7 | 0.00 | 0.00 | 0.00 | 47 | 1019.0 |
| 20260503054146 | 19 | 31 | 11.3 | 12.9 | 0.00 | 0.00 | 0.00 | 48 | 1019.0 |
| 20260503053646 | 19 | 42 | 8.0 | 11.3 | 0.00 | 0.00 | 0.00 | 47 | 1019.0 |
| 20260503053147 | 19 | 34 | 6.4 | 9.7 | 0.00 | 0.00 | 0.00 | 47 | 1019.0 |
| 20260503052647 | 19 | 13 | 9.7 | 17.7 | 0.00 | 0.00 | 0.00 | 46 | 1019.0 |
| 20260503052147 | 19 | 6 | 6.4 | 12.9 | 0.00 | 0.00 | 0.00 | 47 | 1018.6 |
| 20260503051647 | 19 | 10 | 4.8 | 16.1 | 0.00 | 0.00 | 0.00 | 47 | 1019.0 |
| 20260503051146 | 20 | 12 | 6.4 | 12.9 | 0.00 | 0.00 | 0.00 | 46 | 1018.6 |
| 20260503050647 | 20 | 32 | 16.1 | 16.1 | 0.00 | 0.00 | 0.00 | 46 | 1019.0 |
| 20260503050154 | 20 | 0 | 4.8 | 19.3 | 0.00 | 0.00 | 0.00 | 47 | 1019.0 |
| 20260503045647 | 20 | 56 | 8.0 | 14.5 | 0.00 | 0.00 | 1.73 | 47 | 1019.0 |
| 20260503045146 | 20 | 338 | 9.7 | 14.5 | 0.00 | 0.00 | 1.73 | 47 | 1019.0 |
| 20260503044647 | 20 | 37 | 11.3 | 14.5 | 0.00 | 0.00 | 1.73 | 47 | 1019.0 |
| 20260503044146 | 20 | 26 | 8.0 | 12.9 | 0.00 | 0.00 | 1.73 | 47 | 1019.0 |
| 20260503043646 | 20 | 349 | 4.8 | 16.1 | 0.00 | 0.00 | 1.73 | 47 | 1019.0 |
| 20260503043147 | 20 | 331 | 4.8 | 14.5 | 0.00 | 0.00 | 1.73 | 45 | 1019.0 |
| 20260503042646 | 20 | 25 | 8.0 | 16.1 | 0.00 | 0.00 | 1.73 | 45 | 1019.0 |
| 20260503042147 | 20 | 41 | 8.0 | 17.7 | 0.00 | 0.00 | 1.73 | 45 | 1018.6 |
| 20260503041646 | 20 | 3 | 4.8 | 17.7 | 0.00 | 0.00 | 1.73 | 45 | 1018.6 |
| 20260503041146 | 20 | 30 | 8.0 | 9.7 | 0.00 | 0.00 | 1.73 | 45 | 1018.6 |
| 20260503040646 | 20 | 1 | 8.0 | 14.5 | 0.00 | 0.00 | 1.73 | 43 | 1018.6 |
| 20260503040146 | 20 | 26 | 14.5 | 20.9 | 0.00 | 0.00 | 1.73 | 43 | 1018.6 |
| 20260503035647 | 20 | 6 | 8.0 | 14.5 | 0.00 | 0.00 | 1.73 | 45 | 1018.3 |
| 20260503035146 | 20 | 2 | 9.7 | 17.7 | 0.00 | 0.00 | 1.73 | 45 | 1018.6 |
| 20260503034646 | 20 | 26 | 3.2 | 11.3 | 0.00 | 0.00 | 1.73 | 45 | 1018.3 |
| 20260503034148 | 20 | 27 | 8.0 | 14.5 | 0.00 | 0.00 | 1.73 | 44 | 1018.6 |
| 20260503033647 | 20 | 285 | 6.4 | 12.9 | 0.00 | 0.00 | 1.73 | 44 | 1018.6 |
| 20260503033146 | 20 | 6 | 12.9 | 19.3 | 0.00 | 0.00 | 1.73 | 44 | 1018.3 |
| 20260503032646 | 20 | 31 | 11.3 | 14.5 | 0.00 | 0.00 | 1.73 | 44 | 1018.3 |
| 20260503032146 | 20 | 10 | 17.7 | 20.9 | 0.00 | 0.00 | 1.73 | 43 | 1017.9 |
| 20260503031647 | 20 | 12 | 6.4 | 11.3 | 0.00 | 0.00 | 1.73 | 44 | 1018.3 |
| 20260503031146 | 20 | 6 | 11.3 | 17.7 | 0.00 | 0.00 | 1.73 | 43 | 1018.3 |
| 20260503030646 | 20 | 3 | 14.5 | 20.9 | 0.00 | 0.00 | 1.73 | 43 | 1018.3 |
| 20260503030147 | 20 | 352 | 6.4 | 19.3 | 0.00 | 0.00 | 1.73 | 43 | 1018.3 |
| 20260503025646 | 20 | 14 | 14.5 | 14.5 | 0.00 | 0.00 | 1.73 | 42 | 1017.9 |
| 20260503025147 | 20 | 11 | 8.0 | 14.5 | 0.00 | 0.00 | 1.73 | 41 | 1017.9 |
| 20260503024646 | 20 | 41 | 4.8 | 14.5 | 0.00 | 0.00 | 1.73 | 42 | 1017.9 |
| 20260503024146 | 20 | 303 | 4.8 | 17.7 | 0.00 | 0.00 | 1.73 | 42 | 1017.9 |
| 20260503023646 | 20 | 17 | 6.4 | 17.7 | 0.00 | 0.00 | 1.73 | 41 | 1017.9 |
| 20260503023146 | 20 | 4 | 9.7 | 16.1 | 0.00 | 0.00 | 1.73 | 42 | 1017.9 |
| 20260503022647 | 20 | 336 | 4.8 | 14.5 | 0.00 | 0.00 | 1.73 | 42 | 1017.6 |
| 20260503022147 | 20 | 329 | 9.7 | 16.1 | 0.00 | 0.00 | 1.73 | 41 | 1017.6 |
| 20260503021646 | 20 | 27 | 12.9 | 17.7 | 0.00 | 0.00 | 1.73 | 41 | 1017.6 |
| 20260503021148 | 20 | 11 | 14.5 | 20.9 | 0.00 | 0.00 | 1.73 | 41 | 1017.9 |
| 20260503020647 | 20 | 14 | 9.7 | 16.1 | 0.00 | 0.00 | 1.73 | 41 | 1017.6 |
| 20260503020146 | 20 | 25 | 11.3 | 17.7 | 0.00 | 0.00 | 1.73 | 42 | 1017.6 |
| 20260503015647 | 20 | 356 | 11.3 | 16.1 | 0.00 | 0.00 | 1.73 | 42 | 1017.3 |
| 20260503015147 | 20 | 1 | 9.7 | 17.7 | 0.00 | 0.00 | 1.73 | 41 | 1017.3 |
| 20260503014647 | 20 | 338 | 11.3 | 16.1 | 0.00 | 0.00 | 1.73 | 41 | 1017.3 |
| 20260503014146 | 21 | 47 | 11.3 | 14.5 | 0.00 | 0.00 | 1.73 | 40 | 1017.3 |
| 20260503013646 | 20 | 317 | 6.4 | 11.3 | 0.00 | 0.00 | 1.73 | 42 | 1017.3 |
| 20260503013147 | 21 | 337 | 8.0 | 14.5 | 0.00 | 0.00 | 1.73 | 42 | 1017.3 |
| 20260503012646 | 21 | 341 | 4.8 | 12.9 | 0.00 | 0.00 | 1.73 | 42 | 1017.3 |
| 20260503012147 | 21 | 1 | 6.4 | 11.3 | 0.00 | 0.00 | 1.73 | 42 | 1017.3 |
| 20260503011646 | 21 | 317 | 4.8 | 14.5 | 0.00 | 0.00 | 1.73 | 42 | 1017.3 |
| 20260503011146 | 21 | 0 | 1.6 | 11.3 | 0.00 | 0.00 | 1.73 | 42 | 1016.9 |
| 20260503010647 | 21 | 353 | 9.7 | 16.1 | 0.00 | 0.00 | 1.73 | 41 | 1016.9 |
| 20260503010146 | 21 | 326 | 11.3 | 11.3 | 0.00 | 0.00 | 1.73 | 40 | 1016.9 |
| 20260503005646 | 21 | 5 | 8.0 | 17.7 | 0.00 | 0.00 | 1.73 | 40 | 1016.6 |
| 20260503005146 | 21 | 11 | 9.7 | 11.3 | 0.00 | 0.00 | 1.73 | 40 | 1016.6 |
| 20260503004646 | 21 | 4 | 6.4 | 17.7 | 0.00 | 0.00 | 1.73 | 40 | 1016.6 |
| 20260503004146 | 21 | 307 | 6.4 | 17.7 | 0.00 | 0.00 | 1.73 | 40 | 1016.6 |
| 20260503003646 | 21 | 330 | 8.0 | 20.9 | 0.00 | 0.00 | 1.73 | 41 | 1016.3 |
| 20260503003146 | 21 | 356 | 3.2 | 11.3 | 0.00 | 0.00 | 1.73 | 41 | 1016.3 |
| 20260503002647 | 21 | 349 | 6.4 | 14.5 | 0.00 | 0.00 | 1.73 | 40 | 1015.9 |
| 20260503002147 | 21 | 25 | 6.4 | 11.3 | 0.00 | 0.00 | 1.73 | 40 | 1015.9 |
| 20260503001646 | 21 | 2 | 4.8 | 20.9 | 0.00 | 0.00 | 1.73 | 39 | 1015.9 |
| 20260503001147 | 21 | 29 | 11.3 | 16.1 | 0.00 | 0.00 | 1.73 | 39 | 1015.9 |
| 20260503000648 | 21 | 355 | 8.0 | 17.7 | 0.00 | 0.00 | 1.73 | 38 | 1015.9 |
| 20260503000146 | 22 | 336 | 8.0 | 24.1 | 0.00 | 0.00 | 1.73 | 38 | 1015.9 |
| 20260502235646 | 22 | 353 | 11.3 | 22.5 | 0.00 | 0.00 | 1.73 | 38 | 1015.9 |
| 20260502235146 | 22 | 301 | 8.0 | 17.7 | 0.00 | 0.00 | 1.73 | 38 | 1015.6 |
| 20260502234647 | 22 | 359 | 11.3 | 24.1 | 0.00 | 0.00 | 1.73 | 37 | 1015.6 |
| 20260502234146 | 22 | 8 | 6.4 | 19.3 | 0.00 | 0.00 | 1.73 | 37 | 1015.2 |
| 20260502233647 | 22 | 337 | 6.4 | 17.7 | 0.00 | 0.00 | 1.73 | 37 | 1015.2 |
| 20260502233146 | 22 | 349 | 12.9 | 17.7 | 0.00 | 0.00 | 1.73 | 38 | 1015.2 |
| 20260502232647 | 22 | 1 | 6.4 | 19.3 | 0.00 | 0.00 | 1.73 | 37 | 1015.2 |
| 20260502232146 | 22 | 6 | 6.4 | 19.3 | 0.00 | 0.00 | 1.73 | 37 | 1015.6 |
| 20260502231646 | 22 | 332 | 12.9 | 19.3 | 0.00 | 0.00 | 1.73 | 36 | 1015.2 |
| 20260502231147 | 22 | 337 | 9.7 | 16.1 | 0.00 | 0.00 | 1.73 | 36 | 1015.2 |
| 20260502230646 | 22 | 321 | 6.4 | 12.9 | 0.00 | 0.00 | 1.73 | 37 | 1015.2 |
| 20260502230146 | 22 | 8 | 17.7 | 20.9 | 0.00 | 0.00 | 1.73 | 37 | 1014.9 |
| 20260502225648 | 22 | 331 | 11.3 | 20.9 | 0.00 | 0.00 | 1.73 | 37 | 1015.2 |
| 20260502225146 | 22 | 22 | 17.7 | 24.1 | 0.00 | 0.00 | 1.73 | 37 | 1014.9 |
| 20260502224647 | 22 | 350 | 8.0 | 24.1 | 0.00 | 0.00 | 1.73 | 37 | 1015.2 |
| 20260502224146 | 22 | 19 | 9.7 | 17.7 | 0.00 | 0.00 | 1.73 | 38 | 1014.9 |
| 20260502223646 | 22 | 312 | 8.0 | 12.9 | 0.00 | 0.00 | 1.73 | 38 | 1014.9 |
| 20260502223146 | 22 | 345 | 6.4 | 17.7 | 0.00 | 0.00 | 1.73 | 37 | 1014.9 |
| 20260502222646 | 22 | 315 | 6.4 | 19.3 | 0.00 | 0.00 | 1.73 | 38 | 1014.9 |
| 20260502222146 | 22 | 338 | 8.0 | 14.5 | 0.00 | 0.00 | 1.73 | 38 | 1014.6 |
| 20260502221646 | 22 | 5 | 11.3 | 16.1 | 0.00 | 0.00 | 1.73 | 37 | 1014.9 |
| 20260502221146 | 22 | 5 | 11.3 | 16.1 | 0.00 | 0.00 | 1.73 | 37 | 1014.9 |
| 20260502220646 | 22 | 342 | 9.7 | 20.9 | 0.00 | 0.00 | 1.73 | 38 | 1014.9 |
| 20260502220146 | 22 | 22 | 11.3 | 24.1 | 0.00 | 0.00 | 1.73 | 37 | 1014.9 |
| 20260502215646 | 22 | 22 | 14.5 | 24.1 | 0.00 | 0.00 | 1.73 | 37 | 1014.9 |
| 20260502215146 | 22 | 13 | 11.3 | 22.5 | 0.00 | 0.00 | 1.73 | 38 | 1014.9 |
| 20260502214646 | 22 | 334 | 19.3 | 24.1 | 0.00 | 0.00 | 1.73 | 38 | 1014.9 |
| 20260502214146 | 22 | 305 | 9.7 | 25.7 | 0.00 | 0.00 | 1.73 | 38 | 1014.9 |
| 20260502213646 | 22 | 337 | 9.7 | 17.7 | 0.00 | 0.00 | 1.73 | 39 | 1014.9 |
| 20260502213146 | 22 | 341 | 9.7 | 24.1 | 0.00 | 0.00 | 1.73 | 37 | 1014.9 |
| 20260502212646 | 22 | 26 | 17.7 | 19.3 | 0.00 | 0.00 | 1.73 | 38 | 1014.9 |
| 20260502212146 | 22 | 334 | 12.9 | 25.7 | 0.00 | 0.00 | 1.73 | 40 | 1014.9 |
| 20260502211647 | 22 | 8 | 12.9 | 22.5 | 0.00 | 0.00 | 1.73 | 41 | 1014.6 |
| 20260502211146 | 22 | 354 | 6.4 | 25.7 | 0.00 | 0.00 | 1.73 | 39 | 1014.6 |
| 20260502210646 | 22 | 2 | 14.5 | 22.5 | 0.00 | 0.00 | 1.73 | 40 | 1014.9 |
| 20260502210147 | 22 | 330 | 11.3 | 24.1 | 0.00 | 0.00 | 1.73 | 40 | 1014.9 |
| 20260502205647 | 22 | 339 | 12.9 | 29.0 | 0.00 | 0.00 | 1.73 | 40 | 1014.9 |
| 20260502205147 | 22 | 320 | 20.9 | 27.4 | 0.00 | 0.00 | 1.73 | 42 | 1014.9 |
| 20260502204646 | 22 | 46 | 19.3 | 22.5 | 0.00 | 0.00 | 1.73 | 42 | 1014.9 |
| 20260502204147 | 22 | 353 | 19.3 | 32.2 | 0.00 | 0.00 | 1.73 | 42 | 1014.9 |
| 20260502203647 | 22 | 15 | 20.9 | 25.7 | 0.00 | 0.00 | 1.73 | 44 | 1014.9 |
| 20260502203146 | 22 | 35 | 12.9 | 22.5 | 0.00 | 0.00 | 1.73 | 43 | 1014.9 |
| 20260502202646 | 22 | 340 | 11.3 | 25.7 | 0.00 | 0.00 | 1.73 | 45 | 1014.6 |
| 20260502202147 | 22 | 353 | 11.3 | 14.5 | 0.00 | 0.00 | 1.73 | 47 | 1014.9 |
| 20260502201646 | 22 | 339 | 20.9 | 22.5 | 0.00 | 0.00 | 1.73 | 49 | 1014.9 |
| 20260502201146 | 22 | 347 | 11.3 | 27.4 | 0.00 | 0.00 | 1.73 | 49 | 1014.9 |
| 20260502200646 | 22 | 16 | 8.0 | 30.6 | 0.00 | 0.00 | 1.73 | 49 | 1015.2 |
| 20260502200147 | 22 | 352 | 12.9 | 24.1 | 0.00 | 0.00 | 1.73 | 51 | 1015.2 |
| 20260502195646 | 22 | 331 | 14.5 | 27.4 | 0.00 | 0.00 | 1.73 | 53 | 1015.2 |
| 20260502195146 | 22 | 339 | 8.0 | 22.5 | 0.00 | 0.00 | 1.73 | 53 | 1015.2 |
| 20260502194646 | 22 | 342 | 8.0 | 24.1 | 0.00 | 0.00 | 1.73 | 53 | 1015.2 |
| 20260502194149 | 21 | 331 | 11.3 | 22.5 | 0.00 | 0.00 | 1.73 | 53 | 1015.2 |
| 20260502193647 | 21 | 358 | 8.0 | 37.0 | 0.00 | 0.00 | 1.73 | 55 | 1015.2 |
| 20260502193146 | 22 | 1 | 16.1 | 25.7 | 0.00 | 0.00 | 1.73 | 53 | 1015.6 |